^^
Saratoga-Weather Station Historical Data
 
Daily Summary for January 18, 2017 Units:  English    Metric   Both
« Previous Day
Next Day »
Daily Weekly Monthly Yearly Custom
  Current: High: Low: Average:
Temperature: 34.1 °F 34.4 °F 33.7 °F 34.1 °F
Dew Point: 32.6 °F 32.9 °F 32.2 °F 32.6 °F
Humidity: 94% 94% 93% 94%
Wind Speed: 1.0mph 3.0mph 0.0mph 1.2mph
Wind Gust: 2.0mph 7.0mph - -
WindNorth - - East
Pressure: 29.87 in 29.87 in 29.80 in -
Precipitation: 0.14 in      
Historical Graphs
 
 
Tabular Data for January 18, 2017
Time Temperature Dew Point Pressure Wind Wind Speed Wind Gust Humidity Rainfall Rate (Hourly) solar
00:02 34.0 °F 32.2 °F 29.82 in ENE 2.0 mph 3.0 mph 93% 0.00 in 0 W/m2
00:08 34.0 °F 32.2 °F 29.82 in ENE 1.0 mph 3.0 mph 93% 0.00 in 0 W/m2
00:14 34.1 °F 32.3 °F 29.82 in East 1.0 mph 3.0 mph 93% 0.00 in 0 W/m2
00:20 34.2 °F 32.4 °F 29.81 in ENE 2.0 mph 2.0 mph 93% 0.00 in 0 W/m2
00:26 34.3 °F 32.8 °F 29.81 in East 2.0 mph 3.0 mph 94% 0.00 in 0 W/m2
00:32 34.2 °F 32.7 °F 29.81 in ENE 2.0 mph 2.0 mph 94% 0.00 in 0 W/m2
00:38 34.2 °F 32.7 °F 29.81 in ENE 2.0 mph 3.0 mph 94% 0.00 in 0 W/m2
00:44 34.2 °F 32.7 °F 29.81 in ENE 2.0 mph 3.0 mph 94% 0.00 in 0 W/m2
00:50 34.2 °F 32.7 °F 29.81 in ENE 2.0 mph 3.0 mph 94% 0.00 in 0 W/m2
00:56 34.2 °F 32.7 °F 29.81 in ENE 2.0 mph 3.0 mph 94% 0.00 in 0 W/m2
01:02 34.2 °F 32.7 °F 29.81 in ENE 2.0 mph 3.0 mph 94% 0.00 in 0 W/m2
01:08 34.2 °F 32.7 °F 29.81 in ENE 2.0 mph 3.0 mph 94% 0.00 in 0 W/m2
01:14 34.3 °F 32.8 °F 29.81 in ENE 2.0 mph 3.0 mph 94% 0.00 in 0 W/m2
01:20 34.3 °F 32.8 °F 29.81 in ENE 2.0 mph 2.0 mph 94% 0.00 in 0 W/m2
01:26 34.3 °F 32.8 °F 29.80 in ESE 3.0 mph 5.0 mph 94% 0.00 in 0 W/m2
01:32 34.3 °F 32.8 °F 29.81 in ENE 3.0 mph 7.0 mph 94% 0.00 in 0 W/m2
01:38 34.4 °F 32.9 °F 29.81 in ENE 3.0 mph 7.0 mph 94% 0.00 in 0 W/m2
01:44 34.4 °F 32.9 °F 29.81 in East 3.0 mph 3.0 mph 94% 0.00 in 0 W/m2
01:50 34.4 °F 32.9 °F 29.81 in ENE 3.0 mph 3.0 mph 94% 0.00 in 0 W/m2
01:56 34.2 °F 32.7 °F 29.81 in ENE 3.0 mph 3.0 mph 94% 0.00 in 0 W/m2
02:02 34.2 °F 32.7 °F 29.81 in ENE 2.0 mph 3.0 mph 94% 0.00 in 0 W/m2
02:08 34.2 °F 32.7 °F 29.81 in ENE 2.0 mph 3.0 mph 94% 0.00 in 0 W/m2
02:14 34.2 °F 32.7 °F 29.81 in East 2.0 mph 2.0 mph 94% 0.00 in 0 W/m2
02:20 34.2 °F 32.7 °F 29.81 in East 2.0 mph 2.0 mph 94% 0.00 in 0 W/m2
02:26 34.2 °F 32.7 °F 29.81 in ENE 2.0 mph 3.0 mph 94% 0.00 in 0 W/m2
02:32 34.3 °F 32.8 °F 29.81 in ENE 2.0 mph 2.0 mph 94% 0.00 in 0 W/m2
02:38 34.2 °F 32.7 °F 29.81 in ENE 2.0 mph 4.0 mph 94% 0.00 in 0 W/m2
02:44 34.2 °F 32.7 °F 29.81 in ENE 2.0 mph 2.0 mph 94% 0.00 in 0 W/m2
02:50 34.2 °F 32.7 °F 29.81 in ENE 2.0 mph 2.0 mph 94% 0.00 in 0 W/m2
02:56 34.2 °F 32.7 °F 29.81 in ENE 2.0 mph 2.0 mph 94% 0.00 in 0 W/m2
03:02 34.1 °F 32.6 °F 29.81 in ENE 2.0 mph 3.0 mph 94% 0.00 in 0 W/m2
03:08 34.3 °F 32.8 °F 29.81 in ENE 2.0 mph 3.0 mph 94% 0.00 in 0 W/m2
03:14 34.2 °F 32.7 °F 29.81 in ENE 1.0 mph 3.0 mph 94% 0.00 in 0 W/m2
03:20 34.2 °F 32.7 °F 29.81 in ENE 2.0 mph 2.0 mph 94% 0.00 in 0 W/m2
03:26 34.3 °F 32.8 °F 29.81 in ENE 2.0 mph 2.0 mph 94% 0.00 in 0 W/m2
03:32 34.2 °F 32.7 °F 29.81 in ENE 1.0 mph 3.0 mph 94% 0.04 in 0 W/m2
03:38 34.2 °F 32.7 °F 29.81 in Calm   3.0 mph 94% 0.04 in 0 W/m2
03:44 34.2 °F 32.7 °F 29.81 in NE 1.0 mph 2.0 mph 94% 0.04 in 0 W/m2
03:50 34.2 °F 32.7 °F 29.81 in Calm     94% 0.00 in 0 W/m2
03:56 34.2 °F 32.7 °F 29.81 in Calm     94% 0.00 in 0 W/m2
04:02 34.1 °F 32.6 °F 29.81 in Calm     94% 0.13 in 0 W/m2
04:08 34.2 °F 32.7 °F 29.82 in Calm     94% 0.06 in 0 W/m2
04:14 34.3 °F 32.8 °F 29.82 in Calm   1.0 mph 94% 0.04 in 0 W/m2
04:20 34.3 °F 32.8 °F 29.82 in ENE 1.0 mph 1.0 mph 94% 0.00 in 0 W/m2
04:26 34.3 °F 32.8 °F 29.82 in ENE 1.0 mph 1.0 mph 94% 0.00 in 0 W/m2
04:32 34.1 °F 32.6 °F 29.82 in Calm   1.0 mph 94% 0.00 in 0 W/m2
04:38 34.1 °F 32.6 °F 29.82 in ENE 1.0 mph 1.0 mph 94% 0.00 in 0 W/m2
04:44 34.2 °F 32.7 °F 29.83 in ENE 1.0 mph 1.0 mph 94% 0.00 in 0 W/m2
04:50 34.2 °F 32.7 °F 29.83 in ENE 1.0 mph 1.0 mph 94% 0.00 in 0 W/m2
04:56 34.2 °F 32.7 °F 29.83 in Calm   1.0 mph 94% 0.00 in 0 W/m2
05:02 34.0 °F 32.5 °F 29.83 in Calm     94% 0.00 in 0 W/m2
05:08 34.0 °F 32.5 °F 29.83 in Calm     94% 0.00 in 0 W/m2
05:14 33.9 °F 32.4 °F 29.84 in Calm     94% 0.00 in 0 W/m2
05:20 33.9 °F 32.4 °F 29.84 in Calm     94% 0.00 in 0 W/m2
05:26 33.9 °F 32.4 °F 29.84 in Calm     94% 0.00 in 0 W/m2
05:32 33.8 °F 32.3 °F 29.84 in Calm     94% 0.00 in 0 W/m2
05:38 33.8 °F 32.3 °F 29.84 in Calm     94% 0.00 in 0 W/m2
05:44 33.8 °F 32.3 °F 29.84 in Calm     94% 0.00 in 0 W/m2
05:50 33.7 °F 32.2 °F 29.85 in Calm     94% 0.00 in 0 W/m2
05:56 33.7 °F 32.2 °F 29.85 in Calm     94% 0.00 in 0 W/m2
06:02 33.8 °F 32.3 °F 29.85 in Calm     94% 0.00 in 0 W/m2
06:08 33.9 °F 32.4 °F 29.85 in Calm     94% 0.00 in 0 W/m2
06:14 34.0 °F 32.5 °F 29.85 in Calm   1.0 mph 94% 0.00 in 0 W/m2
06:20 34.1 °F 32.6 °F 29.85 in ENE 1.0 mph 1.0 mph 94% 0.00 in 0 W/m2
06:26 34.2 °F 32.7 °F 29.85 in Calm   1.0 mph 94% 0.00 in 0 W/m2
06:32 34.2 °F 32.7 °F 29.86 in Calm     94% 0.00 in 0 W/m2
06:38 34.2 °F 32.7 °F 29.86 in Calm     94% 0.00 in 0 W/m2
06:44 34.2 °F 32.7 °F 29.86 in Calm   1.0 mph 94% 0.00 in 0 W/m2
06:50 34.1 °F 32.6 °F 29.87 in North 1.0 mph 2.0 mph 94% 0.00 in 0 W/m2
06:56 34.1 °F 32.6 °F 29.87 in North 1.0 mph 2.0 mph 94% 0.00 in 0 W/m2
Country Meadow, Clay, NY, USA
Compliments of Weather Underground - 1.25 mb